This is the latest recevied weather packets stored in our database for station/object KI4NG. If no packets are shown the sender has not sent any weather packets the latest 10 day(s).
| Time | Temp. | Humidity | Pressure | Rain* | Wind** | Luminosity | Snow |
|---|---|---|---|---|---|---|---|
| 1778005320 | 21.11° C | 58% | 1013.6 hPa | 0 mm | - | 361 W/m² | - |
| 1778005016 | 21.11° C | 55% | 1013.6 hPa | 0 mm | - | 393 W/m² | - |
| 1778004714 | 21.11° C | 56% | 1013.6 hPa | 0 mm | - | 567 W/m² | - |
| 1778004410 | 20.56° C | 56% | 1013.9 hPa | 0 mm | - | 490 W/m² | - |
| 1778004108 | 20.56° C | 58% | 1013.6 hPa | 0 mm | - | 400 W/m² | - |
| 1778003803 | 21.11° C | 56% | 1013.8 hPa | 0 mm | - | 404 W/m² | - |
| 1778003500 | 21.11° C | 56% | 1014.1 hPa | 0 mm | - | 594 W/m² | - |
| 1778003197 | 20.56° C | 59% | 1014.1 hPa | 0 mm | - | 533 W/m² | - |
| 1778002893 | 20.56° C | 58% | 1014.1 hPa | 0 mm | - | 483 W/m² | - |
| 1778002590 | 20.56° C | 59% | 1014.3 hPa | 0 mm | - | 442 W/m² | - |
| 1778002287 | 20.56° C | 62% | 1014.5 hPa | 0 mm | - | 436 W/m² | - |
| 1778001984 | 20.56° C | 63% | 1014.5 hPa | 0 mm | - | 505 W/m² | - |
| 1778001681 | 20.56° C | 63% | 1014.6 hPa | 0 mm | - | 552 W/m² | - |
| 1778001375 | 20.56° C | 63% | 1014.8 hPa | 0 mm | - | 484 W/m² | - |
| 1778001073 | 20° C | 67% | 1014.7 hPa | 0 mm | - | 484 W/m² | - |
| 1778000770 | 20° C | 66% | 1014.8 hPa | 0 mm | - | 451 W/m² | - |
| 1778000466 | 20° C | 65% | 1014.9 hPa | 0 mm | - | 369 W/m² | - |
| 1778000161 | 20° C | 66% | 1015.2 hPa | 0 mm | - | 326 W/m² | - |
| 1777999857 | 20° C | 66% | 1014.9 hPa | 0 mm | - | 315 W/m² | - |
| 1777999553 | 20° C | 65% | 1015.1 hPa | 0 mm | - | 329 W/m² | - |
| 1777999251 | 19.44° C | 66% | 1015.1 hPa | 0 mm | - | 322 W/m² | - |
| 1777998949 | 19.44° C | 66% | 1015.1 hPa | 0 mm | - | 292 W/m² | - |
| 1777998645 | 20° C | 66% | 1015.2 hPa | 0 mm | - | 333 W/m² | - |
| 1777998338 | 20° C | 65% | 1015.5 hPa | 0 mm | - | 356 W/m² | - |
| 1777998036 | 20° C | 65% | 1015.3 hPa | 0 mm | - | 375 W/m² | - |
* Rain latest hour (hover to see other rain measurements)
** Current wind speed in m/s (hover to see current wind gust speed)